Regional Weather Roundup
Issued by NWS

Home | Current Version | Previous Version | Graphics & Text | Print | Product List | Glossary On
Versions: 1 2 3 4 5 6 7 8 9 10 11 12 13 14 15 16 17 18 19 20 21 22 23 24 25 26 27 28 29 30 31 32 33 34 35 36 37 38 39 40 41 42 43 44 45 46 47 48 49 50
000
ASUS43 KMKX 211500
RWRWI

WISCONSIN REGIONAL WEATHER ROUNDUP
NATIONAL WEATHER SERVICE MILWAUKEE/SULLIVAN WI
1000 AM CDT FRI JUL 21 2017

NOTE: "FAIR" INDICATES FEW OR NO CLOUDS BELOW 12,000 FEET WITH NO
SIGNIFICANT WEATHER AND/OR OBSTRUCTIONS TO VISIBILITY.

WIZ001-002-006>008-014>016-023>028-211600-
NORTHWEST WISCONSIN

CITY           SKY/WX    TMP DP  RH WIND       PRES   REMARKS
SUPERIOR ARPT  NOT AVBL
ASHLAND        PTSUNNY   73  66  78 N5        29.97F
HAYWARD        CLOUDY    76  65  68 SE7       29.96F
SIREN          CLOUDY    76  68  76 SE6       29.93F
CUMBERLAND     PTSUNNY   72  68  88 SE6       29.97F
RICE LAKE      PTSUNNY   74  69  81 SE6       29.97F
CHETEK           N/A     74  69  85 MISG      29.97F
LADYSMITH      PTSUNNY   76  68  77 E3        29.99F
EAU CLAIRE     NOT AVBL
MENOMONIE      CLOUDY    72  72  99 CALM      29.99R
NEW RICHMOND   CLOUDY    73  70  92 S7        29.97S
OSCEOLA        CLOUDY    74  73  96 SE10      29.96F
$$

WIZ003>005-009-010-017-018-211600-
NORTH CENTRAL WISCONSIN

CITY           SKY/WX    TMP DP  RH WIND       PRES   REMARKS
MANITOWISH WTR MOSUNNY   75  66  75 S6        30.01S
ARBOR VITAE    SUNNY     77  67  72 S5        30.00F
WOODRUFF       SUNNY     77  67  72 S5        30.00F
RHINELANDER    SUNNY     78  65  63 S7        30.01F HX  80
EAGLE RIVER    CLOUDY    74  63  68 CALM      30.01S
LAND O LAKES   CLOUDY    77  61  58 SW5       30.02F
PHILLIPS       CLOUDY    75  67  77 S5        29.99F
TOMAHAWK         N/A     77  66  68 CALM      30.02S
MEDFORD        SUNNY     77  66  69 SE7       30.00S
MERRILL        SUNNY     77  68  74 SE3       30.00F
$$

WIZ029-030-035-036-043>047-211600-
CENTRAL WISCONSIN

CITY           SKY/WX    TMP DP  RH WIND       PRES   REMARKS
WAUSAU         SUNNY     79  64  60 SE9       29.98F HX  81
MOSINEE        MOSUNNY   79  66  65 SE6       30.01S HX  81
MARSHFIELD     CLOUDY    77  65  66 E7        29.99S
STEVENS POINT  CLOUDY    78  62  57 SE8       30.00R HX  80
WAUPACA        MOSUNNY   81  67  63 CALM      29.99R HX  83
WAUTOMA        CLOUDY    78  69  73 SE6       29.98  HX  80
WISC RAPIDS    CLOUDY    79  67  66 S6        29.99F HX  81
CAMP DOUGLAS   NOT AVBL
$$

WIZ011>013-019>022-031-037>040-048>050-211600-
NORTHEAST WISCONSIN

CITY           SKY/WX    TMP DP  RH WIND       PRES   REMARKS
ANTIGO         SUNNY     76  64  66 SW7       30.03S
SHAWANO        SUNNY     82  66  58 SW3       29.99R HX  84
OCONTO         SUNNY     80  66  62 CALM      29.97S HX  82
STURGEON BAY     N/A     81  64  56 SW9       29.98S HX  82
GREEN BAY      SUNNY     81  70  69 S6        29.98S HX  84
MANITOWOC      NOT AVBL
APPLETON       PTSUNNY   81  61  50 SE6       29.98S HX  81
CLINTONVILLE   SUNNY     79  64  61 CALM      29.99F HX  81
OSHKOSH        CLOUDY    79  68  69 S3        29.98R HX  81
$$

WIZ032>034-041-042-053>061-211600-
SOUTHWEST WISCONSIN

CITY           SKY/WX    TMP DP  RH WIND       PRES   REMARKS
LA CROSSE      LGT RAIN  73  70  90 W5        30.01R
SPARTA         CLOUDY    69  68  97 CALM      29.99R
VIROQUA        CLOUDY    69  69  98 SE6       30.00R
BOSCOBEL       LGT RAIN  71  70  96 CALM      30.00R FOG
PRAIRIE DU CHI LGT RAIN  71  69  94 CALM      29.99R
PLATTEVILLE    PTSUNNY   72  72 100 S8        30.00S
$$

WIZ056-057-062-063-064-067-068-211600-
SOUTH CENTRAL WISCONSIN

CITY           SKY/WX    TMP DP  RH WIND       PRES   REMARKS
REEDSBURG      CLOUDY    74  73  98 CALM      29.99R
BARABOO/DELLS  CLOUDY    77  68  73 SE3       30.00R
LONE ROCK      PTSUNNY   72  70  93 E5        29.98S
MINERAL POINT  CLOUDY    73  73 100 SE6       30.00S
MADISON        CLOUDY    76  69  79 S7        30.00R
MIDDLETON      PTSUNNY   78  70  78 SE5       30.01R HX  80
WATERTOWN      CLOUDY    78  71  79 CALM      29.99R HX  81
MONROE         CLOUDY    77  72  83 S8        30.00S
JANESVILLE     PTSUNNY   81  73  78 SW6       30.00R HX  85
$$

WIZ051-052-058>065-066-070>072-211600-
SOUTHEAST WISCONSIN

CITY           SKY/WX    TMP DP  RH WIND       PRES   REMARKS
MILWAUKEE      CLOUDY    81  70  69 NE7       29.98R HX  84
WAUKESHA       SUNNY     79  66  65 E6        30.00R HX  81
MILWAUKEE/TIMM SUNNY     79  64  61 NE6       29.99R HX  81
RACINE         CLOUDY    78  71  79 E6        30.00R HX  80
KENOSHA        MOSUNNY   81  73  76 S8        30.00R HX  86
FOND DU LAC    MOSUNNY   81  67  62 E3        29.98R HX  83
SHEBOYGAN      CLOUDY    80  71  74 SE3       29.98S HX  84
WEST BEND      CLOUDY    79  70  73 SE3       29.98S HX  81
JUNEAU         CLOUDY    78  70  77 CALM      30.00R HX  80
$$

LSZ147-162-211600-
LAKE SUPERIOR

STATION/POSITION TIME  TEMP    WIND        PRES    WAVE
                       AIR SEA DIR/SP/G            HT/PER
                 (UTC) (F)     (DEG/KT/KT) (MB)    (FT/S)
W MID LAKE BUOY  1350   54 47   60/  4/  6 1014.1R   0
DEVILS ISLAND    1400   65      70/  6/  7 1014.9R
SAXON HARBOR     1440   70      60/  2/  3 1014.9R
$$

LMZ867-665-643>646-211600-
LAKE MICHIGAN

STATION/POSITION TIME  TEMP    WIND        PRES    WAVE
                       AIR SEA DIR/SP/G            HT/PER
                 (UTC) (F)     (DEG/KT/KT) (MB)    (FT/S)
CHAMBERS ISLAND  1440   76     220/  4/  5 1014.2S
S GREEN BAY BUOY 1430   72 73  220/  6/  6 1014.5F
N MID LAKE BUOY  1350   66 65  200/ 10/ 10 1015.0S   1/ 4
NORTHPORT PIER   1440   71     340/  6/  6 1014.6S
KEWAUNEE LAKESHO 1430   72     150/  3/  5 1014.3S
SHEBOYGAN LAKESH 1400   71      40/  1/  2 1014.5S
PORT WASHINGTON  1430   74      60/  3/  4 1015.6F
ATWATER BUOY     1309   69 67  160/  6/  6 1015.4F
MILWAUKEE LAKESH 1430   75        CALM       N/A
S MID LAKE BUOY  1350   71 70   80/  6/  6 1014.9F   0
KENOSHA   LAKESH 1400   72        CALM     1014.9
$$

TC  - TEMPERATURE IN CELSIUS
VSB - VISIBILITY IN STATUTE MILES
WCI - WIND CHILL INDEX
HX  - HEAT INDEX




USA.gov is the U.S. government's official web portal to all federal, state and local government web resources and services.